JCSAT-2B

Last updated on Mon Feb 16 2026 00:02:49 GMT+0000 (Coordinated Universal Time)

1 41471U 16028A 26046.49836297 -.00000161 00000+0 00000+0 0 9997 2 41471 0.0071 127.8313 0001089 215.3548 135.7128 1.00270375 35918
UTC large
Height (km)
Speed (km/s)
/
Latitude / Longitude
Inclination (degrees)
Orbital Period (minutes)
Azimuth
Elevation
Range (km)
Doppler Factor

Next 0 passes for location: London (51.5072 / 0.1276)

Sorry there are no passes over London.